When you browse on this site, cookies collect data to enhance your experience and personalize the content and advertising you see.
Visit our Privacy Policy to learn more. By continuing to use the site, you agree to this use of cookies and data.
  • In Belgium
  • List of Countries
  • For 7 days
  • Water Temperature
  • Satellite Maps
  • Weather Map
  • Weather Widgets
  • user-avatar
    Login

    Hourly Weather Ardahan

    Today, 17 December, Monday

    Time Temperature Precipitation Wind Pressure Humidity
    00:00 -4°C° 0 mm 2 mps 608 mmHg 84%
    01:00 -5°C° 0 mm 2 mps 607 mmHg 83%
    02:00 -5°C° 0 mm 2 mps 607 mmHg 83%
    03:00 -5°C° 0 mm 2 mps 607 mmHg 83%
    04:00 -5°C° 0 mm 2 mps 607 mmHg 83%
    05:00 -6°C° 0 mm 2 mps 606 mmHg 82%
    06:00 -6°C° 0 mm 2 mps 606 mmHg 81%
    07:00 -6°C° 0 mm 2 mps 606 mmHg 80%
    08:00 -5°C° 0 mm 2 mps 606 mmHg 79%
    09:00 -5°C° 0 mm 2 mps 606 mmHg 78%
    10:00 -3°C° 0 mm 2 mps 606 mmHg 77%
    11:00 -2°C° 0 mm 2 mps 606 mmHg 76%
    12:00 -1°C° 0 mm 2 mps 606 mmHg 75%
    13:00 -1°C° 0 mm 2 mps 606 mmHg 77%
    14:00 -1°C° 0 mm 2 mps 606 mmHg 78%
    15:00 -1°C° 0 mm 2 mps 606 mmHg 79%
    16:00 -2°C° 0 mm 2 mps 606 mmHg 81%
    17:00 -3°C° 0 mm 2 mps 606 mmHg 82%
    18:00 -4°C° 0 mm 2 mps 605 mmHg 83%
    19:00 -4°C° 0.1 mm 2 mps 605 mmHg 85%
    20:00 -4°C° 0.1 mm 2 mps 605 mmHg 86%
    21:00 -4°C° 0.1 mm 2 mps 605 mmHg 87%
    22:00 -4°C° 0.4 mm 2 mps 606 mmHg 88%
    23:00 -3°C° 0.4 mm 2 mps 606 mmHg 90%

    Tomorrow, 18 December, Tuesday

    Time Temperature Precipitation Wind Pressure Humidity
    00:00 -1°C° 0.4 mm 1 mps 606 mmHg 91%
    01:00 -1°C° 0.4 mm 1 mps 606 mmHg 92%
    02:00 -1°C° 0.4 mm 1 mps 606 mmHg 92%
    03:00 -1°C° 0.4 mm 1 mps 606 mmHg 93%
    04:00 -1°C° 0.3 mm 1 mps 606 mmHg 93%
    05:00 -1°C° 0.3 mm 1 mps 606 mmHg 93%
    06:00 -1°C° 0.3 mm 1 mps 606 mmHg 93%
    07:00 -1°C° 0.1 mm 1 mps 606 mmHg 92%
    08:00 -1°C° 0.1 mm 1 mps 607 mmHg 91%
    09:00 -1°C° 0.1 mm 1 mps 607 mmHg 91%
    10:00 0°C° 0 mm 1 mps 607 mmHg 89%
    11:00 +1°C° 0 mm 1 mps 607 mmHg 87%
    12:00 +2°C° 0 mm 1 mps 608 mmHg 86%
    13:00 +2°C° 0 mm 1 mps 608 mmHg 86%
    14:00 +2°C° 0 mm 1 mps 608 mmHg 86%
    15:00 +2°C° 0 mm 1 mps 608 mmHg 86%
    16:00 0°C° 0 mm 1 mps 607 mmHg 88%
    17:00 -1°C° 0 mm 1 mps 607 mmHg 89%
    18:00 -2°C° 0 mm 1 mps 607 mmHg 90%
    19:00 -4°C° 0 mm 2 mps 607 mmHg 90%
    20:00 -5°C° 0 mm 2 mps 607 mmHg 90%
    21:00 -5°C° 0 mm 2 mps 607 mmHg 89%
    22:00 -5°C° 0 mm 2 mps 607 mmHg 89%
    23:00 -5°C° 0 mm 2 mps 607 mmHg 89%

    Day after tomorrow, 19 December, Wednesday

    Time Temperature Precipitation Wind Pressure Humidity
    00:00 -6°C° 0 mm 2 mps 607 mmHg 89%
    01:00 -6°C° 0 mm 2 mps 607 mmHg 89%
    02:00 -6°C° 0 mm 2 mps 607 mmHg 89%
    03:00 -6°C° 0 mm 2 mps 607 mmHg 89%
    04:00 -6°C° 0 mm 2 mps 607 mmHg 89%
    05:00 -6°C° 0 mm 2 mps 607 mmHg 89%
    06:00 -6°C° 0 mm 2 mps 607 mmHg 89%
    07:00 -5°C° 0 mm 2 mps 607 mmHg 89%
    08:00 -5°C° 0 mm 2 mps 607 mmHg 88%
    09:00 -5°C° 0 mm 3 mps 608 mmHg 88%
    10:00 -4°C° 0 mm 3 mps 608 mmHg 86%
    11:00 -1°C° 0 mm 3 mps 608 mmHg 85%
    12:00 0°C° 0 mm 3 mps 608 mmHg 84%
    13:00 0°C° 0 mm 3 mps 608 mmHg 84%
    14:00 0°C° 0 mm 3 mps 608 mmHg 85%
    15:00 +1°C° 0 mm 2 mps 607 mmHg 85%
    16:00 -1°C° 0.1 mm 2 mps 607 mmHg 87%
    17:00 -2°C° 0.1 mm 2 mps 607 mmHg 88%
    18:00 -2°C° 0.1 mm 2 mps 607 mmHg 90%
    19:00 -3°C° 0 mm 2 mps 607 mmHg 90%
    20:00 -3°C° 0 mm 2 mps 607 mmHg 90%
    21:00 -3°C° 0 mm 2 mps 607 mmHg 90%
    22:00 -3°C° 0.1 mm 2 mps 607 mmHg 90%
    23:00 -3°C° 0.1 mm 2 mps 607 mmHg 90%

    20 December, Thursday

    Time Temperature Precipitation Wind Pressure Humidity
    00:00 -3°C° 0.1 mm 2 mps 607 mmHg 90%
    01:00 -3°C° 0.1 mm 2 mps 607 mmHg 90%
    02:00 -3°C° 0.1 mm 2 mps 607 mmHg 91%
    03:00 -3°C° 0.1 mm 2 mps 607 mmHg 91%
    04:00 -3°C° 0.1 mm 2 mps 606 mmHg 91%
    05:00 -4°C° 0.1 mm 2 mps 606 mmHg 91%
    06:00 -4°C° 0.1 mm 2 mps 606 mmHg 92%
    07:00 -3°C° 0.3 mm 2 mps 606 mmHg 92%
    08:00 -3°C° 0.3 mm 2 mps 607 mmHg 92%
    09:00 -1°C° 0.3 mm 1 mps 607 mmHg 92%
    10:00 0°C° 0.4 mm 1 mps 607 mmHg 91%
    11:00 0°C° 0.4 mm 1 mps 607 mmHg 90%
    12:00 +1°C° 0.4 mm 1 mps 607 mmHg 90%
    13:00 +1°C° 0.4 mm 1 mps 607 mmHg 90%
    14:00 +1°C° 0.4 mm 1 mps 607 mmHg 91%
    15:00 +1°C° 0.4 mm 1 mps 607 mmHg 91%
    16:00 +1°C° 0.2 mm 1 mps 607 mmHg 92%
    17:00 0°C° 0.2 mm 1 mps 607 mmHg 93%
    18:00 -1°C° 0.2 mm 1 mps 607 mmHg 95%
    19:00 -1°C° 0.2 mm 1 mps 607 mmHg 95%
    20:00 -1°C° 0.2 mm 1 mps 607 mmHg 95%
    21:00 -2°C° 0.2 mm 0 mps 608 mmHg 95%
    22:00 -1°C° 0.3 mm 1 mps 608 mmHg 95%
    23:00 -1°C° 0.3 mm 1 mps 608 mmHg 95%

    21 December, Friday

    Time Temperature Precipitation Wind Pressure Humidity
    00:00 -1°C° 0.3 mm 1 mps 608 mmHg 95%
    01:00 -1°C° 0.4 mm 1 mps 608 mmHg 95%
    02:00 -1°C° 0.4 mm 1 mps 608 mmHg 95%
    03:00 -1°C° 0.4 mm 1 mps 608 mmHg 95%
    04:00 -1°C° 0.3 mm 1 mps 609 mmHg 95%
    05:00 -1°C° 0.3 mm 1 mps 609 mmHg 95%
    06:00 -1°C° 0.3 mm 1 mps 609 mmHg 95%
    07:00 -1°C° 0.3 mm 1 mps 609 mmHg 95%
    08:00 -1°C° 0.3 mm 1 mps 609 mmHg 94%
    09:00 0°C° 0.3 mm 1 mps 610 mmHg 94%
    10:00 0°C° 0.3 mm 1 mps 610 mmHg 93%
    11:00 +1°C° 0.3 mm 1 mps 610 mmHg 93%
    12:00 +1°C° 0.3 mm 1 mps 610 mmHg 92%
    13:00 +1°C° 0.2 mm 1 mps 609 mmHg 92%
    14:00 +1°C° 0.2 mm 1 mps 609 mmHg 92%
    15:00 +1°C° 0.2 mm 1 mps 609 mmHg 92%
    16:00 +1°C° 0.1 mm 1 mps 609 mmHg 93%
    17:00 0°C° 0.1 mm 1 mps 609 mmHg 94%
    18:00 -1°C° 0.1 mm 1 mps 609 mmHg 95%
    19:00 -1°C° 0 mm 1 mps 609 mmHg 94%
    20:00 -2°C° 0 mm 1 mps 609 mmHg 94%
    21:00 -2°C° 0 mm 1 mps 608 mmHg 93%
    22:00 -3°C° 0 mm 1 mps 608 mmHg 93%
    23:00 -4°C° 0 mm 1 mps 608 mmHg 92%

    22 December, Saturday

    Time Temperature Precipitation Wind Pressure Humidity
    00:00 -6°C° 0 mm 1 mps 607 mmHg 92%
    01:00 -6°C° 0 mm 1 mps 607 mmHg 91%
    02:00 -6°C° 0 mm 1 mps 607 mmHg 90%
    03:00 -6°C° 0 mm 1 mps 606 mmHg 90%
    04:00 -7°C° 0 mm 1 mps 606 mmHg 89%
    05:00 -7°C° 0 mm 1 mps 606 mmHg 89%
    06:00 -7°C° 0 mm 1 mps 606 mmHg 89%
    07:00 -6°C° 0 mm 1 mps 606 mmHg 88%
    08:00 -6°C° 0 mm 1 mps 606 mmHg 87%
    09:00 -4°C° 0 mm 1 mps 607 mmHg 87%
    10:00 -3°C° 0 mm 1 mps 607 mmHg 86%
    11:00 -2°C° 0 mm 1 mps 607 mmHg 84%
    12:00 0°C° 0 mm 1 mps 607 mmHg 83%
    13:00 -1°C° 0 mm 1 mps 607 mmHg 84%
    14:00 -1°C° 0 mm 1 mps 607 mmHg 85%
    15:00 -1°C° 0 mm 1 mps 607 mmHg 87%
    16:00 -1°C° 0.1 mm 1 mps 607 mmHg 89%
    17:00 -2°C° 0.1 mm 1 mps 607 mmHg 91%
    18:00 -3°C° 0.1 mm 1 mps 607 mmHg 93%
    19:00 -3°C° 0.1 mm 1 mps 607 mmHg 93%
    20:00 -4°C° 0.1 mm 1 mps 607 mmHg 93%
    21:00 -4°C° 0.1 mm 1 mps 607 mmHg 94%
    22:00 -4°C° 0.1 mm 1 mps 607 mmHg 94%
    23:00 -6°C° 0.1 mm 1 mps 606 mmHg 94%
    Show more